[Date Prev][Date Next][Thread Prev][Thread Next] - [Date Index][Thread Index][Author Index]

2 Line ISS Keps 8-21



ISS
1 25544U 98067A   02233.34121528  .00043300  00000-0  56306-3 0   675
2 25544  51.6396  85.9941 0017093 164.2778 186.5040 15.58168000214187


----
Via the sarex mailing list at AMSAT.ORG courtesy of AMSAT-NA.
To unsubscribe, send "unsubscribe sarex" to Majordomo@amsat.org



AMSAT Top AMSAT Home